Showing default

ENSO, 58470

Orbit data source: Space-Track

ENSO, 58470 is a payload satellite owned by Montpellier (FR) in SSO that was launched on Fri, 01 Dec 2023 UTC via an FALCON 9 launch vehicle from the Air Force Western Test Range (AFWTR). Payload-class satellites include a variety of spacecraft equipped with specific instruments for various scientific and technological missions. These include communications satellites like Starlink; space stations such as the ISS; scientific satellites like the Hubble; Earth observation satellites from companies like Planet Labs, Umbra, and HawkEye 360; GPS; miniature CubeSats for education and research; and military/defense satellites.

Not visible in the next 10 days
Identifier
58470, 2023-185J
Orbit
SSO
Country
Flag of FRFR
Related business
Manufacturer
Montpellier
Mission
Operational Amateur Technology
Bus & Motor
CUBESAT 1U, Unknown motor
Mass
1 kg wet, 1 kg dry
Launch date (UTC)
2023-12-01 (2 years ago)
Launch vehicle
FALCON 9
Launch site
Air Force Western Test Range (AFWTR)
Object type
Payload
Rocket body
Debris
Shape & HBR
Box + 2 Ant, 3.0 m
Radar Cross Section
0.232 m², Small (<0.1 m²)

Expand to show TLE details & history
Last TLE update: 1 day ago

TLE from 1 day ago
0 ENSO
1 58470U 23185J   25305.67353662  .00814819  32711-3  13838-2 0  9999
2 58470  97.3445  28.0363 0007748 264.7060  95.3336 16.02640667107770
Epoch: 2025-11-01T16:09Z
TLE epoch observation values (Epoch: 2025-11-01T16:09:53.563Z)
Latitude
-0.00003°
Longitude
104.36289°
Altitude
270.795 km
Speed
7.744 km/s
True Right ascension
01h 52m 08s
True Declination
0° 00' 00"
Sunlit
Object was in full shadow at epoch
Visualization orbit readout
Latitude
Unknown
Longitude
Unknown
Altitude
Unknown
Speed
Unknown
Apparent Right ascension
Unknown
Apparent Declination
Unknown
Sunlit
N/A
Visualization observer readout
Local Sidereal Time
23:56:49
Azimuth
Unknown
Elevation
Unknown
Doppler factor
Unknown
Orbital elements
Apogee altitude
269.109 km
Perigee altitude
258.817 km
Semi-major axis
6,642.1 km
Eccentricity
0.00077
Inclination
97.3445°
RAAN
28.0363°
Arg. of periapsis
264.706°
True anomaly
95.42199°
Mean anomaly
95.3336°
Eccentric anomaly
95.3778°
Mean motion
4.00945 °/min
Orbital period
89.79 mins
BSTAR
0.0013838
Loading maneuver chart data...
Computing Atmospheric mass density...
Loading historical data...
Loading historical data...
Loading historical data...
Loading historical data...
Loading historical data...
Loading historical data...
Loading historical data...

Documentation

Showing up to 5 results
|